This is the latest recevied weather packets stored in our database for station/object WD9EKA. If no packets are shown the sender has not sent any weather packets the latest 1 day(s).
| Time | Temp. | Humidity | Pressure | Rain* | Wind** | Luminosity | Snow |
|---|---|---|---|---|---|---|---|
| 1778033493 | 6.67° C | 99% | 1005.4 hPa | 2.79 mm | 0.89 m/s, 64° | - | - |
| 1778033133 | 6.67° C | 99% | 1005.5 hPa | 2.54 mm | 0 m/s | - | - |
| 1778032773 | 7.22° C | 99% | 1005 hPa | 2.29 mm | 0.45 m/s, 242° | - | - |
| 1778032414 | 8.33° C | 99% | 1005.3 hPa | 1.78 mm | 0.45 m/s, 29° | - | - |
| 1778032054 | 8.33° C | 99% | 1005.5 hPa | 2.03 mm | 0 m/s | - | - |
| 1778031694 | 8.33° C | 99% | 1005.1 hPa | 2.03 mm | 0 m/s | - | - |
| 1778031334 | 8.33° C | 99% | 1004.1 hPa | 2.29 mm | 1.34 m/s, 305° | - | - |
| 1778030974 | 8.33° C | 99% | 1004.2 hPa | 2.29 mm | 0 m/s | - | - |
| 1778030614 | 8.33° C | 99% | 1003.9 hPa | 2.54 mm | 0 m/s | - | - |
| 1778030254 | 8.33° C | 99% | 1004 hPa | 2.54 mm | 0 m/s | - | - |
| 1778029894 | 8.33° C | 99% | 1004.3 hPa | 2.29 mm | 0 m/s | - | - |
| 1778029588 | 8.33° C | 99% | 1004.1 hPa | 2.54 mm | 0 m/s | - | - |
| 1778029268 | 8.33° C | 99% | 1004.7 hPa | 2.54 mm | 0 m/s | - | - |
| 1778028939 | 8.33° C | 99% | 1004 hPa | 2.29 mm | 0 m/s | - | - |
| 1778028634 | 8.89° C | 99% | 1004.4 hPa | 1.78 mm | 0 m/s | - | - |
| 1778028274 | 8.89° C | 99% | 1005.4 hPa | 1.02 mm | 1.34 m/s, 232° | - | - |
| 1778027913 | 8.89° C | 99% | 1003.9 hPa | 0.51 mm | 0 m/s | - | - |
| 1778027553 | 8.89° C | 99% | 1004 hPa | 0.51 mm | 0 m/s | - | - |
| 1778027193 | 8.89° C | 99% | 1003.4 hPa | 0.51 mm | 0 m/s | - | - |
| 1778026833 | 8.89° C | 99% | 1003.4 hPa | 0.51 mm | 0 m/s | - | - |
| 1778026474 | 8.89° C | 99% | 1003.5 hPa | 0.51 mm | 0 m/s | - | - |
| 1778026114 | 8.89° C | 99% | 1003.9 hPa | 0.51 mm | 0 m/s | - | - |
| 1778025754 | 8.89° C | 99% | 1004.1 hPa | 0.51 mm | 0 m/s | - | - |
| 1778025393 | 8.89° C | 99% | 1003.8 hPa | 0.76 mm | 0 m/s | - | - |
| 1778025033 | 8.89° C | 99% | 1003.9 hPa | 0.76 mm | 0 m/s | - | - |
* Rain latest hour (hover to see other rain measurements)
** Current wind speed in m/s (hover to see current wind gust speed)